Location: Vancouver
(49.2500°N, 123.1333°W)
Time: 03:22:35
(UTC-07:00)

Daily predictions for brighter satellites

Satellite Brightness Start Highest point End
(mag) Time Altitude Azimuth Time Altitude Azimuth Time Altitude Azimuth
Cosmos 1726 Rocket 4.0 00:01:49 10° N 00:06:13 52° ENE 00:08:25 27° SE
SL-14 R/B 4.4 00:07:53 15° SW 00:10:54 41° WNW 00:14:45 10° N
Cosmos 2278 Rocket 2.6 00:06:56 10° NNW 00:12:33 59° ENE 00:16:32 19° SE
Meteor 2-5 Rocket 3.9 00:08:33 18° SSW 00:12:43 71° WNW 00:18:20 10° N
Lacrosse 5 4.0 00:11:11 10° W 00:12:58 12° WSW 00:14:40 10° SW
Cosmos 1867 3.7 00:08:24 10° NW 00:13:55 75° NE 00:17:41 21° SE
Terra 3.7 00:11:51 10° SW 00:15:22 21° W 00:18:58 10° NW
ALOS 2 2.9 00:14:26 27° SE 00:16:38 60° ENE 00:20:59 10° N
ATLAS CENTAUR R/B 1.8 00:13:18 10° NW 00:17:32 53° SW 00:19:24 31° S
Cosmos 1606 Rocket 3.5 00:15:04 10° N 00:19:35 88° E 00:21:40 31° S
ATLAS CENTAUR R/B 4.1 00:18:06 21° SE 00:20:35 27° ESE 00:29:44 10° NE
Cosmos 1892 Rocket 4.0 00:20:43 30° SSE 00:22:31 48° E 00:26:48 10° NNE
Cosmos 1302 Rocket 4.2 00:18:28 17° SSW 00:22:36 74° WNW 00:27:53 10° NNE
FALCON 9 DEB 4.1 00:28:24 27° ESE 00:28:24 27° ESE 00:30:15 10° ENE
Cosmos 1844 Rocket 4.3 00:23:37 10° NW 00:28:01 24° WSW 00:31:12 15° SW
Cosmos 2233 Rocket 4.4 00:22:08 10° NNW 00:28:05 53° W 00:32:04 21° SSW
SJ 16-02 3.8 00:26:04 10° NNE 00:28:47 16° NE 00:31:30 10° E
Cosmos 967 Rocket 4.5 00:24:12 10° NW 00:30:33 74° WSW 00:34:25 25° SSE
FALCON 9 DEB 3.8 00:36:40 32° ESE 00:36:40 32° ESE 00:38:46 10° ENE
Cosmos 1513 Rocket 4.5 00:30:17 10° N 00:36:23 78° E 00:39:57 26° SSE
Cosmos 1486 Rocket 4.4 00:46:13 10° NNW 00:51:16 51° WSW 00:53:38 29° SSW
FAST Rocket 4.4 00:51:07 49° SE 00:51:41 60° E 00:55:31 10° NNE
Cosmos 1980 3.9 00:49:12 29° S 00:51:56 55° ESE 00:57:30 10° NE
Cosmos 2333 Rocket 2.9 00:46:37 10° SW 00:52:13 52° NW 00:57:50 10° NNE
Iridium 2 4.1 00:52:22 32° SW 00:53:49 52° W 00:57:30 10° N
Cosmos 1626 Rocket 4.5 00:53:02 27° SE 00:54:45 37° E 00:58:53 10° NNE
SAR-Lupe-2 3.6 00:52:45 10° NNE 00:56:20 67° ESE 00:57:18 44° SSE
ATLAS 3B R/B 2.9 00:50:04 10° SW 00:56:37 69° NW 01:03:27 10° NE
NOSS 0 Rocket 3.9 00:54:24 25° SSW 00:58:07 73° ESE 01:04:22 10° NNE
Cosmos 1184 Rocket 2.6 00:59:19 55° S 00:59:56 82° E 01:03:13 10° NNE
Cosmos 1354 Rocket 4.0 00:57:34 10° NNW 01:02:56 79° WSW 01:05:38 30° SSE
Cosmos 1943 Rocket 3.6 00:59:24 10° NNW 01:04:25 34° NE 01:09:25 10° ESE
Cosmos 1455 2.7 01:00:48 10° NNW 01:04:30 47° W 01:05:41 34° SW
USA 215 3.6 00:59:35 10° NE 01:06:06 69° NNW 01:12:34 10° WSW
MTI 3.6 01:06:02 10° N 01:09:05 74° WNW 01:09:37 55° SW
Cosmos 1464 Rocket 4.1 01:03:16 10° NNW 01:09:34 69° W 01:13:12 27° S
Okean 1-7 Rocket 3.5 01:07:58 35° S 01:09:51 84° E 01:14:20 10° N
Cosmos 1346 Rocket 4.2 01:08:04 18° WSW 01:10:20 31° WNW 01:13:58 10° N
FALCON 9 DEB 3.9 01:08:38 10° W 01:12:00 54° NNW 01:15:21 10° ENE
Cosmos 1992 Rocket 4.3 01:10:13 22° SW 01:13:35 64° WNW 01:18:48 10° NNE
Cosmos 2219 Rocket 3.3 01:08:39 10° WSW 01:14:02 42° NW 01:19:27 10° NNE
Nimbus 7 Rocket 4.4 01:10:03 10° NNE 01:16:08 86° WNW 01:19:46 26° SSW
SL-4 R/B 3.0 01:18:00 26° SE 01:18:00 26° SE 01:20:29 10° E
SL-16 R/B 3.2 01:17:37 23° SSE 01:20:03 32° ESE 01:25:02 10° NE
Lacrosse 5 rocket 2.2 01:17:56 10° W 01:21:24 42° NNW 01:24:50 10° NE
Cosmos 2237 Rocket 2.1 01:22:55 26° SSW 01:26:11 89° E 01:31:51 10° NNE
Meteor 1-21 Rocket 4.3 01:24:05 27° SSW 01:27:14 73° WNW 01:32:58 10° N
Elektron 1 3.7 01:25:31 10° NW 01:28:38 78° NE 01:29:45 34° ESE
Resurs 1-4 Rocket 4.3 01:25:36 10° NE 01:28:42 15° E 01:31:47 10° ESE
BREEZE-M DEB (TANK) 4.4 01:24:37 10° W 01:28:53 88° N 01:45:30 10° E
Cosmos 2058 Rocket 4.0 01:25:19 10° NNW 01:29:27 38° W 01:31:10 27° SW
Meteor 1-4 Rocket 2.3 01:27:19 10° NNW 01:30:51 84° WSW 01:31:44 47° S
CZ-2D R/B 4.2 01:28:27 10° NE 01:31:28 15° E 01:34:29 10° ESE
Cosmos 1816 Rocket 4.4 01:29:50 27° S 01:33:22 87° WNW 01:39:32 10° N
GENESIS II 4.1 01:31:59 37° SSW 01:33:27 84° SE 01:37:22 10° NE
Cosmos 1607 4.1 01:28:21 10° NW 01:34:38 58° WSW 01:38:10 26° S
Cosmos-2242 3.8 01:30:39 10° N 01:34:55 46° ENE 01:37:25 22° SE
Cosmos 1812 Rocket 3.6 01:30:39 10° N 01:35:00 76° ENE 01:36:59 32° SSE
GP-B 3.0 01:32:05 10° N 01:36:33 89° E 01:38:28 34° S
Cosmos 2369 Rocket 3.7 01:31:29 10° NNW 01:36:42 34° NE 01:41:52 10° ESE
FALCON 9 DEB 2.8 01:36:51 37° WSW 01:37:56 86° NNW 01:41:05 10° ENE
USA 267 4.0 01:38:53 26° SSW 01:41:17 33° SW 01:47:04 10° WNW
Cosmos 2034 Rocket 4.3 01:35:47 10° NNW 01:41:50 56° W 01:45:14 26° SSW
Meteor 1-11 4.3 01:39:59 28° S 01:43:01 69° E 01:48:35 10° NNE
COSMOS 2428 4.2 01:38:49 10° WSW 01:43:59 33° NW 01:49:11 10° NNE
Cosmos 1703 4.1 01:42:23 27° SW 01:44:01 41° WNW 01:47:48 10° N
Cosmos 1408 4.3 01:46:51 19° SE 01:48:22 25° E 01:51:25 10° NE
Cosmos 1328 4.0 01:47:04 34° SW 01:48:30 58° WNW 01:52:22 10° N
USA 32 4.1 01:44:26 10° N 01:49:40 67° W 01:52:20 29° SSW
Cosmos 2297 3.7 01:46:49 10° NNW 01:52:30 85° ENE 01:56:44 18° SSE
Cosmos 1441 Rocket 4.3 01:52:03 24° WSW 01:53:44 36° WNW 01:57:20 10° N
Cosmos 2278 Rocket 3.4 01:51:37 10° NW 01:56:16 27° WSW 01:58:20 21° SW
Thor Agena Rocket 4.1 01:54:40 10° N 01:59:47 52° WNW 02:03:00 22° SW
SL-16 R/B 3.5 01:55:05 10° SE 02:00:53 44° ENE 02:06:42 10° N
Cosmos 1892 3.5 01:59:43 27° SSE 02:01:22 44° E 02:05:05 10° NNE
FALCON 9 DEB 3.5 02:00:17 13° W 02:02:54 54° NNW 02:05:57 10° ENE
FALCON 9 DEB 3.3 02:00:55 18° W 02:03:04 61° NNW 02:06:10 10° ENE
Tsikada Rocket 4.2 02:02:26 24° SSW 02:06:15 63° WNW 02:12:23 10° N
Cosmos 1825 Rocket 3.8 02:04:54 28° SSE 02:07:08 62° E 02:11:33 10° NNE
SJ 16-02 1.2 02:03:33 10° NNW 02:07:57 79° WSW 02:10:14 28° SSE
Cosmos 2142 Rocket 4.5 02:04:19 10° N 02:10:30 84° E 02:14:50 21° S
FALCON 9 DEB 3.7 02:08:34 11° W 02:11:26 51° NNW 02:14:29 10° ENE
PSLV R/B 4.2 02:07:59 10° N 02:12:05 47° WNW 02:14:22 24° SW
EO 1 Del DPAF 3.7 02:16:24 10° N 02:20:01 49° WNW 02:21:38 28° SW
USA 229 DEB 4.2 02:23:13 22° S 02:27:05 45° ESE 02:33:28 10° NE
USA 229 4.2 02:23:20 21° S 02:27:11 44° ESE 02:33:34 10° NE
Cosmos 405 Rocket 3.5 02:25:40 23° SSE 02:27:32 42° E 02:31:02 10° NNE
In-Cosmos 22 Rocket 4.2 02:24:11 23° S 02:27:46 78° E 02:33:18 10° NNE
Cosmos 1953 Rocket 3.7 02:26:29 25° S 02:28:54 68° E 02:33:16 10° NNE
UNK 4.4 02:27:38 12° SE 02:31:50 54° ENE 02:36:21 10° N
NOSS 3-1 (C) 3.3 02:34:42 23° SSW 02:38:11 73° SE 02:44:31 10° NE
Cosmos 1943 4.3 02:34:29 15° SSE 02:38:19 33° ESE 02:43:19 10° NE
Cosmos 1763 Rocket 3.9 02:35:11 21° S 02:38:21 50° ESE 02:43:18 10° NNE
OPS 6432 4.4 02:38:05 10° NW 02:41:02 51° SW 02:42:53 23° SSE
Cosmos 1825 2.5 02:39:30 24° SSE 02:41:35 59° E 02:45:19 10° NNE
Cosmos 1758 Rocket 4.4 02:42:46 21° SW 02:45:14 40° WNW 02:49:27 10° N
X-37B 2.1 02:45:38 22° SSE 02:45:38 22° SSE 02:47:54 10° ESE
NOSS 2-3 (E) 3.6 02:44:06 25° SSW 02:46:26 67° SE 02:51:17 10° NE
NOSS 3-1 (A) 3.7 02:43:07 21° S 02:46:31 51° ESE 02:52:34 10° NE
Cosmos 1842 Rocket 4.0 02:42:26 10° N 02:46:44 58° ENE 02:50:37 12° SSE
Cosmos 1943 Rocket 2.4 02:43:03 10° NW 02:48:21 48° WSW 02:52:01 19° S
ATLAS 3B R/B 4.5 02:42:48 10° WNW 02:48:31 29° NNW 02:54:28 10° NE
USA 215 4.4 02:42:28 10° ENE 02:48:38 46° N 02:54:49 10° WNW
FALCON 9 DEB 4.3 02:45:56 10° WNW 02:49:14 44° N 02:52:31 10° E
Cosmos 2058 3.3 02:47:41 20° S 02:50:21 58° E 02:54:23 10° NNE
MOZ.5/SAFIR/RUBIN 5/SL-8 4.1 02:49:40 22° SSW 02:52:31 52° W 02:57:11 10° NNW
NPP 4.1 02:47:28 10° NNE 02:52:49 58° E 02:57:02 16° S
Cosmos 1869 4.0 02:49:41 10° NNW 02:53:33 40° W 02:55:32 24° SSW
ATLAS CENTAUR R/B 4.4 02:48:51 10° WSW 02:55:30 76° NNW 03:14:14 10° ENE
Helios 1A 3.8 02:54:35 23° SW 02:56:30 34° W 03:00:21 10° NNW
SL-4 R/B 1.7 02:53:31 15° WSW 02:56:37 86° NNW 03:00:10 10° ENE
Lacrosse 5 rocket 3.5 02:58:12 10° WNW 03:01:09 23° N 03:04:08 10° NE
SL-16 R/B 2.8 02:59:28 15° SW 03:03:58 49° NW 03:09:31 10° NNE
CZ-4 R/B 4.5 03:00:25 10° N 03:04:50 44° WNW 03:08:01 18° SW
Cosmos 1437 Rocket 2.7 03:01:09 10° NNW 03:05:06 77° W 03:07:57 17° S
Cosmos 1356 4.0 03:03:34 24° SW 03:05:16 44° WNW 03:08:34 10° N
NOSS 8 (F) 4.1 03:04:38 25° SW 03:06:19 85° SE 03:09:17 10° NE
USA 281 3.9 03:00:28 10° SE 03:06:51 56° NE 03:13:16 10° NNW
Helios 1B rocket 2.5 03:02:54 10° NNE 03:07:01 72° ESE 03:09:57 18° S
Transit 2A Rocket 4.5 03:06:11 21° SSW 03:09:02 82° ESE 03:13:30 10° NE
Resurs 1-4 Rocket 2.1 03:03:52 10° NNE 03:09:13 86° WNW 03:13:21 17° SSW
Cosmos 2237 Rocket 4.1 03:06:44 10° W 03:11:02 22° NW 03:15:22 10° N
CZ-2D R/B 2.1 03:06:58 10° NNE 03:12:13 84° WNW 03:16:17 17° SSW
Cosmos 1606 2.9 03:09:37 10° N 03:13:29 70° ENE 03:17:16 10° SSE
FALCON 9 DEB 4.3 03:10:54 10° WNW 03:13:53 40° N 03:16:53 10° ENE
Cosmos 1898 Rocket 3.6 03:11:21 10° NNW 03:16:31 58° WSW 03:21:30 11° S
Cosmos 921 Rocket 4.0 03:14:08 12° S 03:17:41 39° ESE 03:21:36 10° NE
Cosmos 990 Rocket 4.4 03:13:17 10° NW 03:18:13 45° WSW 03:22:23 14° S
Cosmos 2369 Rocket 2.4 03:15:26 10° NW 03:20:58 51° WSW 03:26:28 10° S
Cosmos 841 Rocket 3.9 03:17:41 14° S 03:21:59 57° ESE 03:27:03 10° NNE
Cosmos 1408 4.0 03:21:06 16° WSW 03:23:16 26° WNW 03:26:25 10° NNW
Cosmos 2263 4.2 03:18:16 10° NNW 03:23:56 65° WSW 03:29:29 10° SSE
Cosmos 1937 Rocket 3.5 03:18:49 10° NNW 03:24:08 68° WSW 03:29:24 10° S
ADEOS Rocket 3.5 03:17:03 10° SSE 03:24:32 88° ENE 03:31:21 10° NNW
Aureole 3 Rocket 2.8 03:21:49 10° N 03:25:16 86° E 03:29:46 10° S
NOSS 2-3 (D) 3.9 03:23:43 15° SW 03:27:09 67° NW 03:32:12 10° NE
Exosat Rocket 4.0 03:21:51 15° SW 03:27:35 71° WNW 03:32:54 10° NNE
ADEOS II 2.3 03:24:57 10° NNE 03:30:14 71° ESE 03:35:16 11° S
Meteor 1-28 Rocket 3.6 03:26:34 10° SSE 03:30:19 66° ENE 03:34:07 10° N
Lacrosse 4 Rocket 2.8 03:27:28 10° NNW 03:31:25 41° NE 03:35:16 10° ESE
Cosmos 540 Rocket 3.5 03:27:31 15° SSW 03:31:48 80° ESE 03:36:56 10° NNE
NOSS 8 (H) 4.0 03:29:41 19° SW 03:31:49 89° SSE 03:34:46 10° NE
DELTA 2 DEB (DPAF) 4.2 03:30:44 10° SSE 03:35:11 85° ENE 03:39:40 10° NNW
Cosmos 1076 Rocket 3.5 03:31:49 13° S 03:35:34 85° E 03:39:50 10° N
Cosmos 1656 Rocket 3.8 03:32:56 10° NW 03:38:32 58° WSW 03:44:04 10° S
FALCON 9 DEB 4.3 03:35:54 10° WNW 03:38:52 40° N 03:41:48 10° ENE
FALCON 9 DEB 4.3 03:36:07 10° WNW 03:39:06 39° N 03:42:03 10° ENE
Meteor 1-29 2.9 03:37:17 10° NNE 03:40:44 88° WNW 03:43:39 14° SSW
Cosmos 2221 3.2 03:37:33 10° NNW 03:41:33 38° W 03:44:59 13° SSW
Cosmos 1437 2.2 03:39:06 10° NNW 03:41:54 85° WSW 03:44:41 10° S
Cosmos 1814 Rocket 4.4 03:37:16 10° S 03:42:19 59° ESE 03:47:25 10° NNE
NOSS 2-3 (C) 4.4 03:40:13 10° WSW 03:44:17 50° NW 03:49:19 10° NE
Landsat 4 3.7 03:40:30 10° NNE 03:44:20 90° WSW 03:47:48 12° SSW
SL-16 R/B 3.1 03:39:08 12° SSW 03:44:33 39° W 03:50:20 10° NNW
Cosmos 1782 4.4 03:41:55 10° N 03:45:37 35° ENE 03:49:18 10° SE
Cosmos 2151 3.3 03:41:32 10° S 03:45:42 63° E 03:49:52 10° NNE
FALCON 9 DEB 4.3 03:44:26 10° WNW 03:47:25 40° N 03:50:22 10° ENE
Cosmos 1242 Rocket 3.0 03:44:12 10° NNW 03:47:36 42° W 03:50:49 11° SSW
Nadezhda 4 Rocket 4.4 03:42:53 13° SSW 03:48:16 50° WNW 03:54:14 10° N
CZ-4C R/B 3.4 03:44:59 10° SSE 03:48:26 63° ENE 03:51:52 10° N
Meteor 2-3 Rocket 4.4 03:43:23 10° S 03:48:47 51° E 03:54:12 10° NNE
SL-19 R/B 4.3 03:45:01 10° N 03:50:11 66° WNW 03:55:18 11° SSW
Cosmos 2026 Rocket 4.1 03:44:34 10° S 03:50:49 89° E 03:57:12 10° N
ATLAS 5 CENTAUR R/B 2.9 03:49:02 10° S 03:52:26 28° ESE 03:56:11 10° ENE
IDEFIX/ARIANE 42P 3.0 03:47:45 10° NNE 03:52:59 62° E 03:58:09 10° S
Cosmos 2098 Rocket 4.1 03:50:50 12° SSW 03:56:15 45° WNW 04:00:56 10° N
Cosmos 1933 3.5 03:52:31 10° N 03:56:37 80° ENE 04:00:43 10° SSE
ARIANE 5 R/B 3.8 03:52:52 10° NNE 03:57:30 37° E 04:02:06 10° SSE
CREW DRAGON DEMO-1 DEB 2.3 04:05:21 11° WSW 04:07:41 65° SSE 04:10:08 10° ENE
USA 306 4.3 04:04:34 10° SSW 04:08:09 27° SE 04:11:43 10° ENE
IRIDIUM 106 4.4 04:03:52 10° N 04:09:08 90° E 04:14:21 10° S
Spot 1 4.5 04:04:45 10° SSE 04:09:53 83° WSW 04:14:53 10° NNW
SeaSat 1 2.6 04:05:45 10° NNE 04:10:42 74° ESE 04:15:37 10° SSW
Cosmos 1633 3.2 04:09:33 10° SSW 04:12:51 39° WNW 04:16:13 10° N
Cosmos 372 Rocket 4.4 04:08:36 10° NW 04:13:35 45° WSW 04:18:32 10° S
CZ-2C R/B 4.3 04:11:28 10° NE 04:15:47 28° E 04:19:58 10° SSE
NOSS 2-2 (E) 3.3 04:12:39 10° SSW 04:16:02 63° SE 04:19:51 10° NE
Cosmos 1812 4.4 04:12:38 10° N 04:16:12 35° ENE 04:19:44 10° SE
Okean 3 Rocket 4.4 04:12:04 10° S 04:16:19 50° E 04:20:35 10° NNE
Cosmos 1825 4.4 04:15:34 10° W 04:17:27 13° WNW 04:19:22 10° NW
USA 229 DEB 4.2 04:11:35 10° WSW 04:17:56 53° NW 04:24:48 10° NE
USA 229 4.2 04:11:41 10° WSW 04:18:02 54° NW 04:24:54 10° NE
Cosmos 1271 Rocket 3.6 04:16:54 10° N 04:20:34 50° ENE 04:24:13 10° SSE
Cosmos 1766 Rocket 4.2 04:16:51 10° S 04:21:12 58° E 04:25:36 10° NNE
X-37B 1.2 04:18:36 10° WSW 04:21:35 37° S 04:24:34 10° ESE
Cosmos 1943 3.8 04:16:47 10° SW 04:22:12 47° NW 04:27:41 10° NNE
CZ-4B R/B 4.1 04:17:46 10° NNE 04:23:00 59° ESE 04:28:11 10° S
Cosmos 1603 4.4 04:20:29 10° SW 04:25:54 44° NW 04:31:20 10° NNE
IRS-P3 4.3 04:21:04 10° NNE 04:26:25 80° ESE 04:31:45 10° SSW
